Weather Roundup
Issued by NWS Corpus Christi, TX

Home | Current Version | Previous Version | Text Only | Print | Product List | Glossary On
Versions: 1 2 3 4 5 6 7 8 9 10 11 12 13 14 15 16 17 18 19 20 21 22 23 24 25 26 27 28 29 30 31 32 33 34 35 36 37 38 39 40 41 42 43 44 45 46 47 48 49 50
000
ASUS44 KCRP 230210
HRRCRP

SOUTH TEXAS REGIONAL WEATHER ROUNDUP
NATIONAL WEATHER SERVICE CORPUS CHRISTI TX
900 PM CDT SUN OCT 22 2017


TXZ229>244-230300-
...CORPUS CHRISTI AREA OBSERVATIONS...

CITY           SKY/WX    TMP DP  RH WIND       PRES   REMARKS
CORPUS CHRISTI CLEAR     72  61  68 NE9       30.13R
NAS CORPUS CHR CLEAR     75  62  64 NE12      30.12R
ROCKPORT       CLEAR     71  62  73 NE8       30.12R
KINGSVILLE ARP FAIR      70  60  69 CALM      30.14R
KINGSVILLE NAS CLEAR     69  62  78 E6        30.13R
ALICE          CLEAR     68  52  56 NE6       30.13R
$$

...VICTORIA AREA OBSERVATIONS...

CITY           SKY/WX    TMP DP  RH WIND       PRES   REMARKS
PORT LAVACA    CLEAR     65  61  86 E3        30.13R
VICTORIA       CLEAR     59  57  93 CALM      30.14R
BEEVILLE       FAIR      67  49  53 CALM      30.14R
PLEASANTON     PTCLDY    65  48  54 CALM      30.15R
SAN ANTONIO    CLEAR     69  48  47 E3        30.16R
$$

...LAREDO AREA OBSERVATIONS...

CITY           SKY/WX    TMP DP  RH WIND       PRES   REMARKS
LAREDO         CLEAR     76  54  46 E12       30.13R
COTULLA        CLEAR     71  45  39 E8        30.13R
DEL RIO        CLEAR     67  50  54 W5        30.14R
MCALLEN        MOCLDY    78  70  76 NE7       30.11R
HEBBRONVILLE   CLEAR     70  55  58 NE5       30.15R
$$

...OTHER TEXAS OBSERVATIONS...

CITY           SKY/WX    TMP DP  RH WIND       PRES   REMARKS
BROWNSVILLE    CLOUDY    78  74  87 NE6       30.09R
HOUSTON        CLEAR     62  60  93 CALM      30.11R
COL. STATION   CLEAR     62  50  64 N5        30.14R
AUSTIN         CLEAR     58  55  90 NW3       30.16R
WACO           CLEAR     58  43  57 NW6       30.16R
FORT WORTH     CLEAR     63  40  42 NW7       30.15R
WICHITA FALLS  CLEAR     57  38  48 SE8       30.16S
LUBBOCK        CLOUDY    57  32  38 S10       30.19F
EL PASO        CLEAR     72  14  11 CALM      30.25R
$$

...MARINE OBSERVATIONS...

STATION/POSITION TIME  SKY/WX   TEMP    WIND        PRES    VSBY  WAVE   SWELL
                                AIR SEA DIR/SP/G                  HT/PER HT/PER
                 (UTC)          (F)     (DEG/KT/KT) (MB)    (MI)  (FT/S) (FT/S)
PORT ARANSAS     NOT AVBL
BUOY 90 E PORT A 0050            75 82  350/ 14/ 17 1018.1          6/ 7   3/ 7
BUOY 200 E PT IS 0050            80 83   50/ 16/ 19 1017.3         11/ 8   7/ 8
BUOY 15 E GALVES 0050            72 79  340/ 16/ 19 1018.4          3/ 4   2/ 8
$$




USA.gov is the U.S. government's official web portal to all federal, state and local government web resources and services.